Flag for China Weather past 2 weeks in Kashgar, Xinjiang, China

Now
54 °F

Passing clouds.


Feels Like: 49 °F
Forecast: 50 / 66 °F
Wind: 17 mph from Northwest

Location: Kashi Airport

Current Time: Apr 1, 2015 at 3:01:49 AM

Latest Report: Apr 1, 2015 at 2:00 AM


Visibility: N/A

Pressure: 29.53 "Hg

Humidity: 19%

Dew point: 12 °F

Location of KashgarLocation

Historic Weather in Kashgar — Graph

°F

Kashgar temperature yesterday

Maximum temperature yesterday: 68 °F (at 6:00 PM)
Minimum temperature yesterday: 50 °F (at 5:00 AM)
Average temperature yesterday: 58 °F

Past Weeks' High & Low Weather Summary

 TemperatureHumidityPressure
High73 °F (Mar 25, 5:00 PM)41% (Mar 28, 11:00 PM)30.33 "Hg (Mar 28, 11:00 PM)
Low41 °F (Mar 20, 9:00 AM)5% (Mar 25, 5:00 PM)29.50 "Hg (Mar 30, 6:00 PM)
Average57 °F18%30.01 "Hg
* Reported Mar 17 1:00 AM — Apr 1 1:00 AM, Kashgar, Weather by CustomWeather, © 2015

Note: Actual official high and low records may vary slightly from our data, if they occured in-between our weather recording intervals... More about our weather records

Advertising

Kashgar weather history for previous 24 hours

 ConditionsComfort  
Time TempWeatherWind HumidityBarometerVisibility
1:00 AM
Wed, Apr 1
55 °FPassing clouds.17 mph16%29.56 "HgN/A
12:00 AM57 °FPassing clouds.20 mph14%29.59 "HgN/A
11:00 PM
Tue, Mar 31
57 °FPassing clouds.22 mph13%29.59 "HgN/A
10:00 PM59 °FPassing clouds.15 mph13%29.56 "HgN/A
9:00 PM63 °FPassing clouds.13 mph11%29.56 "HgN/A
8:00 PM64 °FPassing clouds.No wind15%29.56 "HgN/A
7:00 PM66 °FPassing clouds.6 mph14%29.56 "HgN/A
6:00 PM68 °FPassing clouds.6 mph13%29.56 "HgN/A
5:00 PM66 °FPassing clouds.8 mph12%29.56 "HgN/A
4:00 PM66 °FPassing clouds.3 mph11%29.59 "HgN/A
3:00 PM64 °FPassing clouds.1 mph11%29.62 "HgN/A
2:00 PM64 °FPassing clouds.3 mph10%29.65 "HgN/A
1:00 PM61 °FPassing clouds.6 mph11%29.68 "HgN/A
12:00 PM59 °FSunny.10 mph10%29.68 "Hg10 mi
11:00 AM55 °FSunny.13 mph13%29.68 "Hg10 mi
10:00 AM52 °FScattered clouds.13 mph13%29.65 "HgN/A
9:00 AM50 °FPassing clouds.15 mph17%29.65 "HgN/A
8:00 AM50 °FClear.13 mph19%29.62 "Hg10 mi
7:00 AM50 °FClear.13 mph19%29.59 "Hg10 mi
6:00 AM50 °FClear.8 mph19%29.59 "Hg10 mi
5:00 AM50 °FClear.15 mph17%29.59 "Hg10 mi
4:00 AM52 °FPassing clouds.17 mph17%29.59 "HgN/A
3:00 AM54 °FClear.17 mph16%29.59 "Hg10 mi
Weather by CustomWeather, © 2015

See weather overviewHow to use our weather pages